• In Uzbekistan
  • List of Countries
  • For 7 days
  • Water Temperature
  • Satellite Maps
  • Weather Map
  • Weather Widgets
  • user-avatar
    Login

    Hourly Weather Odienne

    Today, 24 February, Saturday

    Time Temperature Precipitation Wind Pressure Humidity
    00:00 +31°C° 0 mm 2 mps 720 mmHg 43%
    01:00 +30°C° 0 mm 2 mps 721 mmHg 45%
    02:00 +30°C° 0 mm 2 mps 721 mmHg 48%
    03:00 +29°C° 0 mm 2 mps 721 mmHg 49%
    04:00 +28°C° 0 mm 2 mps 721 mmHg 50%
    05:00 +28°C° 0 mm 2 mps 721 mmHg 51%
    06:00 +29°C° 0 mm 2 mps 722 mmHg 46%
    07:00 +30°C° 0 mm 3 mps 722 mmHg 41%
    08:00 +31°C° 0 mm 3 mps 723 mmHg 36%
    09:00 +34°C° 0 mm 3 mps 723 mmHg 31%
    10:00 +36°C° 0 mm 3 mps 723 mmHg 26%
    11:00 +38°C° 0 mm 3 mps 723 mmHg 22%
    12:00 +39°C° 0 mm 3 mps 722 mmHg 21%
    13:00 +39°C° 0 mm 2 mps 721 mmHg 20%
    14:00 +40°C° 0 mm 2 mps 721 mmHg 19%
    15:00 +39°C° 0 mm 1 mps 721 mmHg 20%
    16:00 +37°C° 0 mm 1 mps 720 mmHg 21%
    17:00 +36°C° 0 mm 1 mps 720 mmHg 22%
    18:00 +35°C° 0 mm 1 mps 721 mmHg 24%
    19:00 +34°C° 0 mm 1 mps 721 mmHg 26%
    20:00 +34°C° 0 mm 2 mps 722 mmHg 28%
    21:00 +32°C° 0 mm 1 mps 722 mmHg 30%
    22:00 +31°C° 0 mm 1 mps 722 mmHg 32%
    23:00 +31°C° 0 mm 1 mps 722 mmHg 33%

    Tomorrow, 25 February, Sunday

    Time Temperature Precipitation Wind Pressure Humidity
    00:00 +30°C° 0 mm 1 mps 722 mmHg 36%
    01:00 +29°C° 0 mm 1 mps 722 mmHg 39%
    02:00 +29°C° 0 mm 1 mps 721 mmHg 42%
    03:00 +28°C° 0 mm 1 mps 722 mmHg 45%
    04:00 +28°C° 0 mm 1 mps 722 mmHg 47%
    05:00 +27°C° 0 mm 1 mps 722 mmHg 50%
    06:00 +28°C° 0 mm 1 mps 722 mmHg 47%
    07:00 +30°C° 0 mm 2 mps 723 mmHg 45%
    08:00 +31°C° 0 mm 2 mps 723 mmHg 42%
    09:00 +34°C° 0 mm 2 mps 723 mmHg 36%
    10:00 +36°C° 0 mm 2 mps 723 mmHg 30%
    11:00 +38°C° 0 mm 2 mps 723 mmHg 24%
    12:00 +40°C° 0 mm 1 mps 723 mmHg 22%
    13:00 +41°C° 0 mm 1 mps 722 mmHg 20%
    14:00 +42°C° 0 mm 1 mps 721 mmHg 18%
    15:00 +41°C° 0 mm 1 mps 721 mmHg 20%
    16:00 +39°C° 0 mm 1 mps 721 mmHg 21%
    17:00 +37°C° 0 mm 1 mps 721 mmHg 22%
    18:00 +36°C° 0 mm 1 mps 721 mmHg 25%
    19:00 +35°C° 0 mm 1 mps 722 mmHg 27%
    20:00 +33°C° 0 mm 1 mps 722 mmHg 29%
    21:00 +33°C° 0 mm 1 mps 722 mmHg 31%
    22:00 +32°C° 0 mm 1 mps 722 mmHg 32%
    23:00 +32°C° 0 mm 1 mps 722 mmHg 34%

    Day after tomorrow, 26 February, Monday

    Time Temperature Precipitation Wind Pressure Humidity
    00:00 +31°C° 0 mm 1 mps 722 mmHg 36%
    01:00 +30°C° 0 mm 1 mps 721 mmHg 39%
    02:00 +30°C° 0 mm 1 mps 721 mmHg 41%
    03:00 +29°C° 0 mm 1 mps 721 mmHg 43%
    04:00 +29°C° 0 mm 1 mps 721 mmHg 45%
    05:00 +28°C° 0 mm 1 mps 721 mmHg 48%
    06:00 +30°C° 0 mm 1 mps 722 mmHg 46%
    07:00 +31°C° 0 mm 1 mps 722 mmHg 45%
    08:00 +32°C° 0 mm 2 mps 723 mmHg 43%
    09:00 +35°C° 0 mm 1 mps 723 mmHg 36%
    10:00 +39°C° 0 mm 1 mps 723 mmHg 29%
    11:00 +42°C° 0 mm 1 mps 723 mmHg 21%
    12:00 +41°C° 0 mm 1 mps 722 mmHg 22%
    13:00 +40°C° 0 mm 1 mps 721 mmHg 22%
    14:00 +39°C° 0 mm 1 mps 720 mmHg 22%
    15:00 +39°C° 0 mm 2 mps 720 mmHg 23%
    16:00 +39°C° 0 mm 2 mps 720 mmHg 23%
    17:00 +38°C° 0 mm 2 mps 720 mmHg 24%
    18:00 +37°C° 0 mm 2 mps 721 mmHg 27%
    19:00 +36°C° 0 mm 2 mps 721 mmHg 29%
    20:00 +35°C° 0 mm 2 mps 722 mmHg 32%
    21:00 +34°C° 0 mm 2 mps 722 mmHg 36%
    22:00 +34°C° 0 mm 2 mps 722 mmHg 39%
    23:00 +32°C° 0 mm 2 mps 722 mmHg 42%

    27 February, Tuesday

    Time Temperature Precipitation Wind Pressure Humidity
    00:00 +31°C° 0 mm 2 mps 722 mmHg 47%
    01:00 +30°C° 0 mm 2 mps 721 mmHg 51%
    02:00 +30°C° 0 mm 1 mps 721 mmHg 56%
    03:00 +29°C° 0.1 mm 2 mps 721 mmHg 59%
    04:00 +29°C° 0.1 mm 2 mps 721 mmHg 62%
    05:00 +28°C° 0.1 mm 2 mps 721 mmHg 64%
    06:00 +29°C° 0 mm 2 mps 722 mmHg 62%
    07:00 +30°C° 0 mm 2 mps 723 mmHg 61%
    08:00 +30°C° 0 mm 2 mps 723 mmHg 59%
    09:00 +34°C° 0 mm 2 mps 723 mmHg 51%
    10:00 +36°C° 0 mm 2 mps 723 mmHg 43%
    11:00 +38°C° 0 mm 2 mps 723 mmHg 35%
    12:00 +38°C° 0 mm 2 mps 722 mmHg 33%
    13:00 +39°C° 0 mm 2 mps 721 mmHg 31%
    14:00 +39°C° 0 mm 2 mps 720 mmHg 30%
    15:00 +38°C° 0 mm 2 mps 720 mmHg 31%
    16:00 +37°C° 0 mm 2 mps 720 mmHg 33%
    17:00 +37°C° 0 mm 2 mps 721 mmHg 35%
    18:00 +35°C° 0.1 mm 1 mps 721 mmHg 38%
    19:00 +33°C° 0.1 mm 1 mps 722 mmHg 42%
    20:00 +32°C° 0.1 mm 1 mps 722 mmHg 46%
    21:00 +31°C° 1.3 mm 1 mps 722 mmHg 52%
    22:00 +30°C° 1.3 mm 1 mps 723 mmHg 59%
    23:00 +29°C° 1.3 mm 1 mps 723 mmHg 65%

    28 February, Wednesday

    Time Temperature Precipitation Wind Pressure Humidity
    00:00 +29°C° 0.1 mm 1 mps 722 mmHg 66%
    01:00 +28°C° 0.1 mm 1 mps 722 mmHg 68%
    02:00 +28°C° 0.1 mm 2 mps 721 mmHg 69%
    03:00 +28°C° 0 mm 1 mps 721 mmHg 70%
    04:00 +27°C° 0 mm 1 mps 722 mmHg 72%
    05:00 +25°C° 0 mm 0 mps 722 mmHg 73%
    06:00 +28°C° 0 mm 1 mps 722 mmHg 69%
    07:00 +29°C° 0 mm 1 mps 723 mmHg 64%
    08:00 +30°C° 0 mm 1 mps 724 mmHg 60%
    09:00 +33°C° 0 mm 1 mps 724 mmHg 52%
    10:00 +35°C° 0 mm 1 mps 723 mmHg 43%
    11:00 +39°C° 0 mm 1 mps 723 mmHg 35%
    12:00 +39°C° 0 mm 1 mps 722 mmHg 32%
    13:00 +40°C° 0 mm 1 mps 721 mmHg 30%
    14:00 +40°C° 0 mm 2 mps 721 mmHg 28%
    15:00 +39°C° 0 mm 1 mps 721 mmHg 30%
    16:00 +37°C° 0 mm 1 mps 721 mmHg 32%
    17:00 +36°C° 0 mm 1 mps 721 mmHg 34%
    18:00 +35°C° 0.2 mm 1 mps 721 mmHg 37%
    19:00 +34°C° 0.2 mm 1 mps 722 mmHg 39%
    20:00 +33°C° 0.2 mm 1 mps 722 mmHg 41%
    21:00 +33°C° 0.1 mm 1 mps 722 mmHg 42%
    22:00 +33°C° 0.1 mm 1 mps 722 mmHg 44%
    23:00 +32°C° 0.1 mm 1 mps 722 mmHg 45%

    1 March, Thursday

    Time Temperature Precipitation Wind Pressure Humidity
    00:00 +31°C° 0.3 mm 1 mps 722 mmHg 49%
    01:00 +31°C° 0.3 mm 1 mps 722 mmHg 52%
    02:00 +30°C° 0.3 mm 1 mps 721 mmHg 56%
    03:00 +29°C° 0 mm 2 mps 721 mmHg 59%
    04:00 +29°C° 0 mm 2 mps 722 mmHg 62%
    05:00 +28°C° 0 mm 2 mps 722 mmHg 65%
    06:00 +29°C° 0 mm 2 mps 723 mmHg 62%
    07:00 +30°C° 0 mm 2 mps 723 mmHg 60%
    08:00 +31°C° 0 mm 2 mps 724 mmHg 57%
    09:00 +35°C° 0 mm 2 mps 723 mmHg 49%
    10:00 +37°C° 0 mm 2 mps 723 mmHg 42%
    11:00 +40°C° 0 mm 1 mps 723 mmHg 34%
    12:00 +39°C° 0 mm 1 mps 722 mmHg 33%
    13:00 +39°C° 0 mm 1 mps 721 mmHg 32%
    14:00 +37°C° 0 mm 1 mps 720 mmHg 31%
    15:00 +37°C° 0 mm 1 mps 721 mmHg 31%
    16:00 +37°C° 0 mm 1 mps 721 mmHg 30%
    17:00 +37°C° 0 mm 1 mps 721 mmHg 30%
    18:00 +35°C° 0 mm 1 mps 721 mmHg 34%
    19:00 +34°C° 0 mm 1 mps 722 mmHg 37%
    20:00 +33°C° 0 mm 1 mps 722 mmHg 41%
    21:00 +32°C° 0.1 mm 2 mps 722 mmHg 45%
    22:00 +31°C° 0.1 mm 2 mps 722 mmHg 49%
    23:00 +31°C° 0.1 mm 2 mps 722 mmHg 52%
    Show more